Location: Unspecified
(52.4292°N, 19.3359°E)
Time: 15:46:17
(UTC+02:00)

Transit 2A Rocket - Pass Details

Date: 22 May 2024
Orbit: 583 x 910 km, 66.7° (Epoch: 14 June)

Event Time Altitude Azimuth Distance (km) Brightness Sun altitude
Rises 12:25:11 0° 320° (NW) 3,369 8.1 58.0°
Reaches altitude 10° 12:27:35 10° 322° (NW) 2,474 7.5 58.0°
Maximum altitude 12:33:23 78° 49° (NE) 910 6.4 58.1°
Drops below altitude 10° 12:39:27 10° 136° (SE) 2,586 8.2 58.1°
Sets 12:42:00 0° 138° (SE) 3,531 8.8 58.1°
